Wind_Speed
1 1 1 1 1 2 2 2 1 2 2 2 2 3 3 3 3 4 4 4 4 4 4 4 4 4 5 5 5 4 4 5 5 5 5 5 5 5 6 5 5 6 6 6 6 5 6 8 10
1 1 1 1 2 2 2 1 2 2 2 2 2 3 3 3 3 4 4 4 4 5 4 4 4 4 5 5 5 5 5 5 5 5 5 5 6 6 6 6 6 6 5 5 5 4 4 6 8
2 2 2 2 2 2 2 1 2 3 3 2 3 3 3 3 3 4 4 4 5 5 5 5 4 5 5 6 6 6 6 6 6 5 5 6 6 6 6 6 6 6 5 5 5 4 4 4 6
2 2 3 3 3 2 2 2 2 3 3 3 3 3 3 3 3 4 4 4 4 5 5 5 5 5 5 6 6 6 6 6 6 6 6 6 7 7 6 6 6 6 6 6 5 5 5 5 7
2 3 4 4 3 3 2 2 3 3 3 3 3 3 3 3 4 4 4 4 4 5 5 5 5 6 6 6 6 6 6 6 6 7 7 7 7 7 7 7 7 7 7 6 6 6 6 6 7
3 3 4 4 4 3 3 3 3 3 3 3 3 3 4 4 4 5 5 5 5 5 6 6 6 6 6 7 7 7 6 6 7 7 7 7 8 8 8 8 8 8 8 7 7 7 8 7 8
3 4 4 4 4 3 4 3 4 3 3 3 3 4 4 4 4 5 5 5 5 6 6 7 7 6 7 7 7 7 7 7 7 7 7 8 8 9 9 9 10 10 10 9 8 8 7 8 8
4 4 4 4 4 4 4 3 4 4 4 4 4 4 5 5 5 5 5 5 5 6 7 7 7 7 7 7 7 7 7 7 7 8 8 8 8 9 9 9 9 10 10 10 9 8 8 8 8
4 4 4 4 4 4 4 4 4 4 5 5 5 5 5 6 6 6 6 6 6 6 7 7 7 7 8 8 7 7 7 7 8 8 9 9 9 8 8 8 9 9 9 9 9 9 9 8 9
4 4 4 4 4 4 4 4 4 4 5 5 5 5 6 6 6 6 7 7 7 7 7 8 8 8 8 8 8 8 8 8 8 8 9 9 9 9 9 9 8 8 8 8 8 8 9 9 9
4 4 4 4 4 4 4 4 4 4 5 5 5 6 6 6 6 6 7 7 7 7 8 8 9 9 8 8 8 8 8 8 8 8 8 9 9 9 9 8 8 8 8 8 8 9 9 9 9
4 4 4 4 4 5 5 4 4 4 5 5 5 6 6 6 6 6 7 7 7 7 7 8 8 8 8 8 8 8 8 8 8 8 8 8 9 9 8 8 8 8 8 8 8 8 9 8 8
4 4 4 5 5 5 4 4 4 4 5 5 5 6 6 6 7 7 7 7 7 7 7 7 8 8 8 8 8 8 8 8 8 8 8 7 7 7 7 7 8 7 7 8 8 8 8 8 8
4 4 4 4 4 4 4 4 4 4 5 5 5 5 6 7 7 7 7 7 7 7 6 7 7 7 8 8 8 8 8 7 7 7 7 7 7 7 7 7 7 7 7 7 8 8 8 7 8
5 4 4 4 4 4 5 4 5 5 5 5 5 6 6 7 7 7 7 7 7 7 7 7 7 7 7 8 8 8 7 7 7 7 7 7 6 6 6 6 6 6 7 7 7 8 8 8 8
5 5 4 4 4 5 5 4 5 5 5 5 6 6 6 7 7 7 7 7 7 7 7 7 7 7 7 8 8 7 7 7 7 7 7 7 6 6 6 6 6 6 7 7 8 8 8 8 8
6 6 5 5 5 5 6 5 5 6 6 6 6 6 6 6 7 7 7 7 7 7 7 7 7 7 7 7 7 7 7 6 6 6 6 6 6 6 6 6 6 7 7 7 7 7 7 7 7
7 7 7 7 6 6 7 6 6 7 7 7 7 6 6 6 7 7 7 7 8 8 8 8 8 8 7 7 8 7 7 6 6 6 6 6 6 6 6 6 6 6 6 6 6 6 7 7 8
9 9 8 8 7 8 8 8 7 7 7 7 6 7 7 7 7 7 7 8 8 8 9 8 8 8 7 7 7 7 7 6 5 5 6 6 6 6 6 6 6 6 7 7 6 7 7 7 7
10 10 9 9 9 9 8 8 7 7 7 7 7 7 7 8 8 8 7 7 8 8 9 8 8 8 7 7 7 7 6 6 5 5 6 6 5 5 5 5 5 6 6 7 7 7 7 7 7
11 10 10 10 9 9 9 8 8 8 8 8 8 8 8 8 8 8 8 8 8 8 9 9 8 8 7 7 7 7 6 6 6 6 6 6 5 5 5 5 5 5 5 6 6 6 6 7 7
11 11 11 11 11 10 10 9 8 8 7 8 8 9 8 8 8 8 8 9 9 9 9 8 8 8 8 7 7 7 6 6 6 6 6 5 5 5 5 6 5 5 5 5 5 6 6 6 6
12 12 12 13 12 12 11 11 10 9 8 9 9 9 9 9 9 9 9 9 9 9 9 9 8 8 7 7 7 7 7 7 6 6 5 5 5 5 5 5 5 5 6 6 6 6 7 7 7
13 13 13 13 13 13 12 12 11 10 9 10 10 10 11 10 10 10 10 10 10 10 9 9 9 8 8 8 7 7 8 7 7 6 6 5 5 5 5 5 6 6 6 7 7 7 8 7 7
13 13 14 14 14 13 13 14 12 11 10 10 10 11 12 11 11 11 11 10 11 10 10 10 10 9 9 8 8 8 8 7 7 7 7 6 6 6 6 6 6 7 7 7 8 8 8 8 9
13 14 15 15 14 13 14 15 13 12 11 11 11 12 12 11 11 11 11 11 12 12 11 10 10 11 10 10 9 9 9 9 8 8 8 8 7 7 7 7 7 7 8 8 8 9 9 9 10
14 14 15 16 16 16 16 15 14 13 12 12 12 13 13 13 13 13 13 13 13 13 12 12 12 11 11 11 11 11 10 10 9 9 9 9 9 9 8 8 8 9 9 9 9 9 10 10 10
15 15 16 17 17 17 17 16 15 15 14 14 14 14 15 15 15 15 15 14 14 14 15 14 13 13 12 13 12 12 12 11 11 11 11 11 10 10 10 10 10 10 10 10 10 10 11 11 10
17 17 17 18 19 19 19 17 17 17 17 17 16 16 16 16 16 16 17 16 15 16 16 15 15 14 14 14 14 14 14 13 13 12 12 12 12 12 12 12 12 12 11 11 11 11 11 10 10
19 19 19 19 20 21 22 20 18 19 19 19 18 18 17 17 18 18 18 18 17 17 16 16 16 16 16 16 16 16 15 15 14 14 13 13 14 14 13 13 13 13 13 12 12 12 11 11 10
Wind_Direction
227 235 218 223 263 256 264 273 312 341 348 345 335 333 338 332 330 326 329 330 331 332 327 321 317 314 307 304 299 297 299 296 291 278 274 275 273 277 272 272 275 275 269 265 268 275 258 226 217
251 250 257 257 256 254 263 304 331 340 349 346 330 323 330 331 337 333 330 330 329 329 326 320 316 311 307 303 297 292 297 295 294 285 278 278 278 278 275 277 273 274 276 271 275 284 255 216 212
261 260 258 252 258 265 291 323 342 339 342 345 336 327 328 333 335 327 332 334 332 332 327 318 314 316 313 309 302 293 290 287 285 280 278 282 281 278 277 274 270 267 271 270 270 265 248 230 227
276 267 259 257 265 280 295 309 327 330 332 336 330 324 323 329 329 326 330 330 329 330 329 327 324 321 316 309 302 296 290 287 285 280 277 278 280 279 278 277 273 272 270 263 263 257 250 242 234
278 265 259 263 267 272 283 309 318 312 325 335 333 327 323 326 324 322 321 320 320 320 322 322 321 316 313 310 306 300 294 292 290 284 280 279 280 280 276 277 274 272 269 262 259 255 258 249 240
267 257 257 265 270 280 289 293 307 307 313 318 319 314 315 314 315 318 318 315 315 315 317 319 320 316 312 310 307 303 297 293 292 289 282 278 275 278 277 277 275 274 273 269 261 257 258 251 244
251 252 259 262 261 279 290 292 301 307 303 307 305 303 308 307 310 313 314 313 312 311 313 316 318 316 312 309 309 306 300 293 288 287 284 279 278 280 279 278 276 274 273 268 263 260 255 250 246
257 259 265 266 272 282 289 295 307 306 303 304 302 302 306 310 312 314 315 316 313 311 309 309 313 315 315 312 309 307 304 296 288 285 285 285 287 284 283 280 278 274 271 267 262 259 254 249 245
264 272 275 276 278 282 288 286 296 309 308 309 310 314 319 314 309 305 308 312 313 309 306 305 307 307 312 313 311 309 308 302 294 289 288 288 291 288 285 282 279 274 267 264 262 258 254 254 248
272 279 280 281 283 286 292 295 298 302 309 312 307 308 311 310 310 311 311 308 306 307 306 303 302 303 306 307 306 307 306 303 296 293 292 287 285 283 284 280 274 269 265 261 261 256 254 254 253
277 283 290 291 293 296 299 303 306 310 311 311 311 312 314 316 314 311 310 309 306 305 305 303 299 301 302 301 302 303 303 300 297 294 290 286 283 284 282 279 273 269 268 262 258 257 256 254 256
278 283 289 299 297 300 306 310 303 309 312 310 311 316 318 319 317 314 312 309 309 307 305 304 303 303 304 301 300 303 303 300 296 296 294 290 287 284 282 278 275 275 271 265 260 262 256 256 257
283 285 289 292 300 301 305 310 301 307 311 308 313 318 322 320 317 318 319 315 315 317 313 308 310 310 305 303 302 302 302 301 298 302 300 293 290 287 282 277 272 270 271 271 273 266 262 262 256
285 291 297 299 304 301 298 311 315 319 314 316 319 321 326 320 320 324 325 325 325 323 319 316 315 314 308 306 305 304 302 301 299 301 301 297 296 294 288 281 271 268 270 271 271 272 271 271 264
274 280 288 298 303 304 304 311 316 316 320 319 317 318 320 321 322 324 325 326 329 327 325 321 319 315 310 305 303 303 302 298 297 297 297 296 294 291 286 280 274 272 275 275 272 269 268 268 269
273 274 285 295 300 300 300 310 310 314 313 311 311 314 316 317 319 319 321 321 325 327 326 323 321 317 312 307 305 306 307 304 300 296 295 292 290 288 286 278 275 274 276 279 277 273 269 267 268
272 271 277 285 288 287 286 292 296 300 303 310 310 309 309 313 315 319 322 322 325 325 324 321 319 317 315 309 309 310 309 309 306 298 295 291 287 286 283 281 277 274 276 280 277 273 274 271 269
271 273 272 276 283 280 281 287 291 298 300 308 310 309 308 308 311 313 319 321 323 324 322 319 317 316 313 310 310 314 310 307 305 301 293 288 286 282 279 280 280 280 280 280 279 277 276 274 273
271 269 270 273 274 274 276 280 287 292 295 299 302 304 303 300 302 307 314 318 319 320 320 319 315 314 313 313 313 315 310 309 309 304 297 291 284 279 273 275 277 278 279 278 279 278 279 280 281
275 272 272 271 273 273 273 278 282 290 294 298 301 299 297 297 298 303 310 315 316 316 316 315 313 312 311 313 313 309 307 308 307 310 306 297 288 284 281 279 280 279 279 278 278 280 280 281 280
277 275 275 275 276 276 275 275 280 287 296 300 301 301 297 293 293 296 300 306 310 313 314 312 312 307 304 306 310 307 306 307 310 308 306 299 292 289 285 283 286 288 285 283 281 284 285 283 281
275 274 273 273 275 274 275 273 274 278 286 290 293 297 294 291 290 292 293 298 301 304 309 308 306 305 303 301 304 306 305 304 310 311 304 300 293 287 286 286 285 287 289 293 293 293 290 289 284
278 274 272 273 273 271 273 273 274 271 278 282 286 293 292 288 287 287 289 292 295 298 303 303 301 299 298 298 298 299 297 297 303 305 304 300 293 288 286 286 283 286 289 292 293 295 295 292 288
279 277 275 272 271 268 272 274 274 274 280 282 285 291 291 288 285 283 284 286 290 294 297 297 295 295 294 294 293 292 292 290 292 294 295 301 301 288 283 280 283 285 289 289 289 290 290 288 284
278 277 275 272 269 271 273 274 278 279 279 280 282 286 288 286 284 280 278 281 287 291 293 291 288 287 289 288 286 286 287 284 281 282 284 290 297 289 281 277 280 280 282 285 285 288 288 285 283
279 276 277 278 276 273 272 274 275 274 273 277 280 282 282 284 283 281 279 279 282 284 285 288 285 282 283 284 284 280 279 279 280 277 278 283 287 287 281 276 280 280 280 282 284 284 286 285 283
279 278 278 278 277 275 274 274 272 269 270 271 275 279 279 280 282 282 279 277 279 281 283 283 282 280 279 279 282 280 277 277 279 279 278 279 282 282 279 276 276 276 279 282 284 284 285 286 282
278 278 277 277 277 276 275 274 274 272 272 270 271 276 278 277 277 278 278 277 275 275 277 277 275 276 275 275 275 276 274 274 275 278 278 279 280 281 279 277 276 275 277 280 280 282 283 284 283
276 274 274 275 275 277 277 274 272 272 272 271 273 275 275 273 272 275 276 276 275 273 272 276 275 273 271 271 272 274 272 269 270 272 274 277 278 277 275 276 275 275 276 277 278 280 280 281 280
274 275 275 274 273 273 274 273 273 273 273 273 273 274 275 271 270 272 273 274 274 272 275 277 276 273 271 271 272 272 272 270 268 270 271 274 275 273 272 273 274 272 274 274 274 277 277 277 276
Height
5881 5881 5881 5882 5882 5881 5880 5880 5879 5878 5878 5878 5877 5877 5876 5876 5877 5878 5875 5873 5872 5872 5871 5871 5870 5870 5869 5869 5869 5869 5868 5868 5868 5868 5867 5867 5866 5866 5866 5865 5865 5864 5864 5863 5862 5859 5854 5852 5857
5880 5880 5881 5881 5881 5880 5880 5879 5878 5878 5877 5877 5876 5876 5876 5875 5875 5874 5873 5872 5871 5871 5870 5870 5869 5869 5869 5868 5868 5868 5868 5867 5867 5867 5866 5866 5865 5865 5865 5864 5864 5864 5863 5862 5861 5859 5856 5855 5858
5880 5880 5881 5881 5880 5880 5879 5878 5878 5877 5877 5876 5876 5875 5875 5875 5874 5873 5872 5871 5871 5870 5869 5869 5868 5868 5868 5867 5867 5867 5866 5866 5866 5866 5865 5865 5864 5864 5864 5863 5863 5863 5862 5862 5861 5860 5859 5859 5860
5880 5880 5881 5880 5879 5879 5878 5878 5877 5876 5876 5876 5875 5875 5874 5874 5873 5872 5871 5870 5870 5869 5868 5868 5867 5867 5867 5866 5866 5865 5865 5865 5865 5864 5864 5864 5863 5862 5862 5862 5862 5861 5861 5861 5860 5860 5860 5860 5860
5879 5880 5880 5879 5878 5878 5877 5876 5876 5875 5875 5875 5874 5874 5873 5873 5872 5871 5870 5870 5869 5868 5867 5867 5866 5866 5865 5865 5864 5864 5864 5864 5863 5863 5863 5862 5861 5861 5860 5860 5860 5860 5859 5859 5859 5859 5859 5859 5859
5879 5879 5879 5878 5877 5877 5876 5876 5875 5875 5874 5874 5873 5873 5872 5872 5871 5870 5869 5868 5868 5867 5866 5866 5865 5865 5864 5864 5863 5863 5862 5862 5862 5861 5861 5860 5860 5859 5859 5859 5858 5858 5858 5857 5858 5858 5858 5858 5858
5879 5878 5877 5877 5876 5876 5876 5875 5875 5874 5873 5873 5873 5872 5871 5871 5870 5869 5868 5867 5867 5866 5865 5865 5864 5864 5863 5863 5862 5861 5861 5860 5860 5859 5859 5859 5858 5858 5857 5857 5856 5856 5856 5856 5856 5856 5856 5856 5856
5877 5878 5876 5876 5875 5875 5875 5874 5874 5873 5872 5872 5872 5871 5870 5870 5869 5868 5867 5866 5866 5865 5864 5864 5863 5863 5862 5861 5860 5860 5859 5859 5858 5858 5857 5857 5856 5856 5855 5855 5854 5854 5854 5854 5854 5854 5854 5854 5854
5876 5877 5875 5875 5875 5874 5873 5873 5873 5872 5871 5870 5870 5870 5869 5868 5867 5867 5866 5865 5865 5864 5863 5862 5862 5861 5861 5860 5859 5858 5858 5857 5856 5856 5855 5855 5854 5853 5853 5852 5852 5852 5851 5851 5851 5851 5852 5852 5852
5875 5875 5875 5874 5873 5873 5872 5872 5872 5871 5870 5869 5869 5868 5868 5867 5866 5866 5865 5864 5863 5862 5861 5861 5860 5860 5859 5858 5857 5856 5856 5855 5854 5854 5853 5852 5852 5851 5851 5850 5849 5849 5849 5849 5849 5850 5850 5850 5850
5874 5874 5873 5873 5872 5872 5871 5871 5870 5870 5870 5869 5868 5867 5866 5865 5865 5864 5864 5863 5862 5861 5860 5859 5858 5858 5857 5856 5855 5855 5854 5853 5852 5851 5851 5850 5850 5849 5848 5848 5847 5847 5847 5847 5847 5847 5848 5848 5848
5873 5873 5872 5871 5871 5871 5870 5870 5869 5869 5868 5868 5867 5866 5865 5864 5864 5863 5862 5861 5860 5860 5859 5858 5857 5856 5855 5854 5853 5852 5852 5851 5850 5849 5848 5848 5847 5847 5846 5846 5845 5845 5845 5845 5845 5845 5845 5845 5845
5872 5871 5871 5870 5870 5869 5869 5868 5868 5868 5867 5866 5865 5864 5864 5863 5862 5861 5860 5859 5859 5858 5857 5856 5855 5854 5853 5852 5851 5850 5850 5849 5848 5847 5846 5845 5845 5844 5844 5843 5843 5843 5843 5843 5843 5843 5843 5843 5844
5871 5870 5870 5869 5869 5868 5868 5868 5867 5867 5865 5865 5864 5863 5862 5862 5861 5860 5859 5858 5857 5856 5855 5854 5853 5853 5852 5851 5850 5849 5848 5847 5846 5845 5844 5843 5843 5843 5842 5841 5841 5841 5841 5841 5841 5841 5841 5841 5842
5870 5869 5869 5868 5868 5867 5867 5867 5866 5865 5864 5864 5863 5862 5861 5860 5859 5858 5858 5857 5856 5855 5854 5853 5852 5851 5850 5849 5848 5847 5846 5845 5844 5843 5842 5841 5841 5841 5840 5840 5839 5839 5839 5839 5839 5839 5839 5839 5839
5868 5868 5868 5867 5866 5866 5867 5866 5865 5864 5863 5862 5862 5861 5860 5859 5858 5857 5856 5855 5854 5853 5852 5851 5850 5849 5848 5847 5846 5845 5844 5843 5842 5841 5840 5840 5839 5839 5838 5838 5838 5837 5837 5837 5837 5837 5837 5837 5837
5867 5866 5866 5866 5865 5864 5864 5864 5863 5862 5861 5861 5860 5859 5859 5858 5857 5856 5855 5854 5853 5852 5851 5850 5849 5848 5847 5846 5844 5843 5842 5841 5840 5839 5839 5838 5837 5837 5837 5836 5836 5835 5835 5835 5835 5835 5835 5835 5835
5865 5864 5864 5864 5863 5862 5862 5862 5861 5860 5859 5859 5858 5858 5857 5856 5856 5855 5854 5853 5852 5851 5849 5848 5847 5846 5845 5844 5842 5842 5841 5840 5839 5838 5837 5836 5836 5835 5835 5834 5834 5834 5834 5833 5833 5833 5833 5833 5832
5862 5861 5861 5861 5861 5860 5860 5859 5859 5858 5858 5857 5856 5856 5855 5854 5854 5853 5852 5851 5850 5849 5848 5847 5846 5844 5843 5842 5841 5840 5839 5838 5837 5836 5835 5834 5834 5833 5833 5833 5832 5832 5832 5832 5831 5831 5831 5830 5830
5859 5859 5858 5858 5858 5858 5857 5857 5857 5856 5855 5855 5854 5854 5853 5852 5851 5850 5850 5849 5848 5847 5846 5845 5844 5843 5842 5841 5839 5838 5837 5836 5835 5835 5834 5833 5832 5832 5831 5831 5831 5830 5830 5830 5829 5829 5829 5829 5829
5857 5856 5856 5855 5855 5855 5854 5855 5854 5853 5853 5852 5852 5851 5850 5850 5849 5848 5848 5847 5846 5845 5844 5843 5842 5841 5840 5839 5838 5837 5836 5835 5834 5833 5832 5831 5831 5830 5830 5829 5829 5829 5828 5828 5827 5827 5827 5827 5827
5854 5853 5853 5852 5852 5852 5852 5851 5852 5851 5850 5849 5849 5848 5848 5847 5847 5846 5845 5844 5844 5843 5842 5841 5840 5839 5838 5837 5836 5835 5834 5833 5833 5832 5831 5830 5829 5829 5828 5828 5827 5827 5827 5826 5826 5825 5825 5825 5824
5851 5850 5849 5849 5848 5848 5848 5848 5849 5847 5847 5846 5846 5845 5844 5844 5844 5843 5842 5842 5841 5841 5840 5839 5838 5837 5836 5835 5835 5834 5833 5832 5831 5830 5829 5829 5828 5827 5827 5826 5826 5826 5825 5825 5824 5824 5823 5823 5822
5847 5847 5846 5845 5845 5845 5845 5844 5845 5844 5844 5843 5842 5842 5841 5841 5840 5840 5840 5839 5839 5838 5837 5836 5835 5835 5834 5833 5832 5832 5831 5830 5829 5829 5828 5827 5826 5826 5825 5825 5824 5824 5824 5823 5823 5822 5822 5821 5821
5844 5844 5843 5842 5841 5842 5841 5840 5841 5840 5840 5839 5839 5838 5838 5837 5837 5837 5836 5836 5835 5835 5834 5834 5833 5832 5831 5831 5830 5829 5829 5828 5827 5827 5826 5826 5825 5824 5824 5823 5823 5822 5822 5821 5821 5820 5820 5819 5819
5840 5840 5840 5839 5838 5837 5836 5836 5838 5836 5836 5835 5835 5834 5834 5834 5833 5833 5833 5832 5832 5831 5831 5830 5830 5829 5828 5828 5827 5826 5826 5826 5825 5825 5824 5823 5823 5822 5821 5821 5821 5820 5820 5819 5818 5818 5817 5817 5816
5836 5836 5835 5834 5833 5832 5832 5832 5832 5832 5831 5831 5831 5830 5830 5830 5829 5829 5829 5828 5828 5827 5827 5827 5827 5826 5825 5824 5824 5823 5823 5823 5822 5822 5821 5821 5820 5820 5819 5819 5818 5818 5817 5816 5816 5815 5815 5814 5813
5832 5831 5831 5829 5828 5827 5827 5827 5828 5827 5827 5827 5826 5826 5826 5825 5825 5825 5824 5824 5823 5823 5823 5822 5822 5822 5821 5821 5820 5820 5819 5819 5819 5818 5818 5818 5817 5817 5816 5816 5815 5815 5814 5814 5813 5813 5812 5811 5811
5828 5827 5825 5824 5823 5823 5822 5825 5823 5822 5821 5822 5821 5821 5820 5820 5820 5820 5819 5819 5819 5818 5818 5818 5818 5817 5817 5817 5816 5816 5815 5815 5815 5815 5814 5814 5814 5813 5813 5812 5812 5812 5811 5811 5810 5809 5809 5808 5808
5822 5821 5820 5819 5818 5817 5816 5820 5818 5817 5816 5816 5816 5815 5815 5815 5814 5814 5814 5814 5813 5813 5813 5813 5813 5813 5812 5812 5812 5811 5811 5811 5811 5811 5810 5810 5810 5809 5809 5809 5808 5808 5807 5807 5807 5806 5806 5805 5805